Terminal Aerodrome Forecast
Issued by NWS Grand Rapids, MI

Home | Current Version | Previous Version | Text Only | Print | Product List | Glossary On
Versions: 1 2 3 4 5 6 7 8 9 10 11 12 13 14 15 16 17 18 19 20
000
FTUS43 KGRR 250546
TAFGRR
TAF
KGRR 250546Z 2506/2606 08008KT P6SM SKC
     FM251400 13010G18KT P6SM SCT040 SCT070
     FM260100 15010KT P6SM BKN100
     FM260400 18010KT P6SM VCSH BKN035=

USA.gov is the U.S. government's official web portal to all federal, state and local government web resources and services.